Location: Brest
(52.1000°N, 23.7000°E)
Time: 10:09:20
(UTC+03:00)

GENESIS II - Visible Passes

Search period start: 29 June 2017 00:00
Search period end: 09 July 2017 00:00
Orbit: 498 x 537 km, 64.5° (Epoch: 28 June)

Date Brightness Start Highest point End Pass type
(mag) Time Alt. Az. Time Alt. Az. Time Alt. Az.
29 Jun 5.7 03:18:31 12° S 03:21:33 27° ESE 03:24:59 10° ENE visible
30 Jun 5.6 03:03:45 15° S 03:06:23 28° ESE 03:09:52 10° ENE visible
01 Jul 5.5 02:48:56 17° S 02:51:13 29° ESE 02:54:44 10° ENE visible
02 Jul 5.5 02:34:04 19° SSE 02:36:05 30° ESE 02:39:37 10° ENE visible
02 Jul 5.0 04:09:45 10° WSW 04:13:40 47° NW 04:17:36 10° NE visible
03 Jul 5.4 02:19:09 22° SSE 02:20:55 31° ESE 02:24:29 10° ENE visible
03 Jul 5.1 03:54:38 10° WSW 03:58:32 46° NW 04:02:26 10° NE visible
04 Jul 5.3 02:04:12 24° SSE 02:05:45 32° ESE 02:09:21 10° ENE visible
04 Jul 5.1 03:39:30 10° WSW 03:43:23 45° NW 03:47:17 10° NE visible
05 Jul 5.2 01:49:12 25° SSE 01:50:35 33° ESE 01:54:14 10° ENE visible
05 Jul 5.2 03:24:23 10° WSW 03:28:15 44° NW 03:32:07 10° NE visible
06 Jul 5.1 01:34:09 27° SSE 01:35:26 34° ESE 01:39:06 10° ENE visible
06 Jul 5.3 03:09:15 10° WSW 03:13:06 43° NW 03:16:59 10° NE visible
07 Jul 5.1 01:19:02 28° SSE 01:20:16 35° ESE 01:23:57 10° ENE visible
07 Jul 5.3 02:54:07 10° WSW 02:57:58 42° NW 03:01:49 10° NE visible
08 Jul 5.0 01:03:51 28° SSE 01:05:07 36° ESE 01:08:49 10° ENE visible
08 Jul 5.4 02:38:59 10° WSW 02:42:49 41° NW 02:46:40 10° NE visible
08 Jul 6.9 04:18:53 10° NW 04:21:31 16° NNW 04:24:09 10° NNE visible
